Find Starlink 37846

NORAD ID: 100492 Int'l Des: 2026-196 Owner: SPXS Country: US Constellation: starlink operational

当前视图

正在加载3D地球...

About Starlink 37846

Starlink 37846 (NORAD 100492) is a starlink constellation satellite launched Aug 25, 2026 by SPXS of US. with a mass of 575.00 kg.

即将过境

Passes for default location (London). Set your location on the main map for personalized predictions.

高度历史

Loading altitude history...

两行轨道根数

1 A0492U 26196V 26255.51339318 -.00954777 00000-0 -71519-2 0 9998
2 A0492 53.1573 281.6629 0002530 232.8966 127.1823 15.74625312 4094
Epoch: Sep 12, 2026 • Age: 194 hours

当前状态

高度 385.9 km
远地点 / 近地点 N/A
速度 7.68 km/s
星下点 -27.05°S, 125.21°W
发射日期 Aug 25, 2026
运行时间 26 days
类型 internet

技术详情

分类 Payload
质量 575.00 kg
干质量 530.00 kg
长度 0.30 m
跨度 29.00 m
形状 ? Box + pan
制造商 SPXS
平台类型 Starlink V2MO
阶段状态 In Orbit
所有者/国家 SPXS/US

Most Searched